Wind_Speed
29 25 23 24 25 24 25 25 25 26 26 24 22 20 19 19 18 18 18 18 19 18 17 17 17 17 17 15 15 15 15 15 15 15 15 15 15 15 15 15 16 16 17 18
32 28 25 25 24 23 23 23 25 28 28 27 25 23 22 21 20 19 19 19 20 19 19 19 19 19 19 18 18 17 18 18 18 18 18 18 18 18 18 18 18 18 18 19
31 29 27 29 26 25 24 24 25 26 27 29 26 24 24 23 21 21 21 22 23 22 21 20 20 20 20 20 20 20 20 20 21 21 21 21 21 21 21 21 21 21 21 22
29 28 29 29 25 25 25 26 27 28 30 30 26 25 25 24 23 23 23 23 22 21 22 22 22 21 21 22 22 22 22 22 23 24 24 23 24 24 23 24 24 23 24 24
29 28 28 28 27 27 28 29 29 29 30 30 28 27 27 25 24 24 24 24 23 23 24 25 25 24 24 25 25 25 25 25 25 26 26 26 26 26 26 27 27 27 26 26
28 27 27 27 27 27 27 30 29 29 30 31 29 28 27 27 27 26 25 25 25 25 25 26 27 27 27 27 27 28 28 27 27 28 28 28 28 29 29 29 29 29 29 29
29 28 27 27 28 28 28 28 29 29 30 31 29 29 28 29 28 28 27 27 27 27 27 28 28 29 29 29 29 30 30 30 30 31 30 30 30 31 31 32 32 32 32 31
29 28 29 29 29 31 31 29 29 28 29 30 30 28 28 30 30 29 29 29 29 29 29 30 31 31 32 32 32 33 32 33 33 33 32 32 32 32 33 34 34 34 34 34
29 29 31 30 30 31 31 30 30 30 29 29 29 30 29 29 30 30 30 30 31 32 32 32 32 32 33 33 34 34 33 33 34 34 34 34 34 34 34 35 35 36 36 36
30 32 31 32 30 30 30 29 29 30 29 28 28 29 30 30 30 30 31 31 32 32 33 34 34 33 33 34 34 34 34 34 35 35 35 35 36 36 36 36 36 37 37 37
31 33 33 31 30 29 30 30 29 29 29 29 29 29 29 30 30 31 32 33 33 33 34 35 35 35 35 36 36 35 35 35 35 35 36 36 37 37 37 37 37 37 38 38
31 31 32 32 30 31 31 31 31 31 31 31 30 30 31 32 32 32 33 34 34 35 36 36 36 37 37 37 37 37 36 36 36 37 37 37 38 38 38 37 38 38 39 40
30 31 31 32 32 32 33 32 31 31 32 31 31 31 32 32 33 34 34 35 35 36 37 37 37 37 37 37 36 36 36 37 38 38 38 38 38 38 38 38 39 39 39 39
29 30 31 31 31 31 32 32 31 30 31 31 31 32 32 32 33 34 35 35 35 36 36 37 37 37 36 36 36 36 36 37 37 38 38 38 38 39 39 39 39 39 39 39
29 30 31 30 30 30 30 29 30 30 30 31 31 32 33 33 34 34 35 34 35 35 36 35 35 35 36 36 36 37 38 38 38 38 39 39 39 39 39 39 39 39 39 38
29 30 30 30 31 31 30 29 29 30 30 31 31 32 32 33 33 33 33 33 34 34 34 34 34 35 36 37 37 38 38 38 38 38 38 38 38 38 38 38 39 39 38 37
27 28 29 29 30 30 30 29 29 29 30 31 31 32 32 32 32 32 32 33 33 33 33 33 34 34 35 35 36 36 37 37 37 37 36 36 37 37 37 37 37 36 36 36
26 26 27 27 27 27 27 28 28 28 29 30 30 30 31 31 31 31 32 32 33 33 32 33 33 33 34 35 35 36 36 36 36 37 37 35 35 35 34 34 34 34 35 35
24 24 24 25 26 25 25 26 27 27 28 28 29 29 29 30 30 30 30 31 31 32 32 32 32 33 33 33 33 34 35 35 35 36 36 34 33 33 33 33 33 34 34 34
21 22 22 23 23 23 24 24 25 25 26 27 28 29 29 29 29 30 30 31 31 31 31 31 32 32 32 32 33 33 33 33 33 33 33 33 33 33 33 33 32 33 34 34
20 21 21 22 22 22 22 23 23 24 25 25 26 27 28 28 29 29 30 31 30 30 30 31 31 31 31 32 32 33 32 32 32 32 32 32 32 32 32 33 33 34 34 34
18 18 19 19 20 21 21 21 22 23 23 24 25 26 26 27 27 27 29 29 29 29 30 30 30 31 31 30 30 31 31 31 31 32 32 32 31 32 32 32 32 31 31 32
16 16 17 17 18 19 20 20 21 22 22 23 24 24 24 24 25 25 26 27 27 28 29 28 29 29 30 30 30 30 29 29 30 30 30 31 32 32 32 32 31 31 32 32
15 15 16 17 17 18 19 20 21 22 23 23 23 23 23 23 24 25 25 25 25 26 27 27 27 27 27 28 27 27 28 29 29 30 30 30 30 31 31 31 31 31 32 32
13 15 16 16 17 18 18 19 19 20 21 22 22 22 22 22 23 23 24 24 24 24 25 25 24 24 24 24 25 25 25 26 27 28 28 28 28 29 29 29 30 30 30 30
13 14 14 15 15 15 16 17 18 19 19 19 19 20 20 20 21 22 22 21 22 21 21 22 22 22 22 23 24 24 24 24 25 26 26 27 27 28 29 29 29 29 28 29
11 12 13 13 13 14 15 16 16 17 17 17 17 18 18 19 20 20 20 20 20 20 21 22 23 23 23 23 22 22 23 24 24 24 25 25 26 26 27 28 28 27 27 27
Wind_Direction
222 227 232 234 235 235 238 239 245 250 252 252 251 252 259 264 267 268 267 267 269 272 276 276 276 279 280 283 286 285 282 287 288 287 287 286 288 289 289 290 290 290 293 295
225 225 231 235 236 238 240 243 246 251 252 256 255 255 259 264 264 265 265 267 267 268 270 273 273 277 278 280 283 285 284 283 282 282 282 283 284 285 285 287 290 291 292 294
229 229 232 235 237 237 236 238 244 251 255 256 247 255 260 262 263 263 264 267 267 264 267 270 272 274 275 277 280 282 282 282 282 281 282 281 281 283 285 287 289 290 291 292
231 229 234 238 238 241 243 246 246 249 253 254 250 255 257 258 261 264 264 267 270 270 269 269 270 273 275 277 279 279 278 280 282 282 282 283 284 284 284 288 288 288 289 292
232 234 236 238 239 240 242 245 245 248 254 255 256 255 256 256 259 261 262 265 267 269 270 271 272 274 275 277 278 278 277 278 281 282 283 283 284 283 282 284 286 285 287 289
233 234 238 240 241 242 245 247 246 246 250 254 255 252 254 256 258 260 261 264 267 269 271 271 272 273 275 277 279 279 277 278 279 280 281 281 282 282 282 283 284 284 285 286
232 234 237 241 241 239 238 241 245 248 250 253 256 254 254 257 258 259 261 264 267 268 270 272 273 275 276 278 279 279 278 278 279 280 281 281 281 281 281 281 282 282 283 285
230 232 237 240 241 239 240 243 248 250 252 253 256 256 255 256 258 261 262 265 268 269 271 273 274 275 276 278 278 278 278 278 279 279 280 280 281 281 281 281 281 282 283 283
230 231 234 237 240 241 243 247 249 254 255 253 255 257 257 259 259 261 263 265 267 268 270 272 274 276 277 278 278 277 277 277 278 278 279 279 280 280 280 281 282 282 282 283
231 232 235 239 241 244 246 249 251 252 253 255 257 257 259 261 262 264 266 268 270 271 272 273 275 276 278 279 279 279 279 279 279 278 278 279 279 279 279 281 282 282 282 283
235 235 236 238 242 246 249 252 254 254 256 256 257 259 260 261 263 265 266 269 271 272 273 273 274 275 277 278 278 279 280 280 280 280 279 278 279 279 279 279 280 281 281 281
234 236 236 240 245 247 249 253 254 256 257 258 258 259 261 262 265 266 269 271 272 273 274 274 275 276 277 278 277 278 279 280 281 281 281 280 280 280 279 278 279 280 281 281
237 240 243 246 248 251 252 254 256 257 258 259 261 264 264 265 266 268 270 272 273 274 274 275 275 277 277 278 277 279 280 281 281 282 282 281 281 280 279 278 278 279 280 280
240 244 248 250 250 253 255 256 259 261 260 260 263 266 267 267 268 270 271 273 274 275 275 275 275 276 277 278 279 281 281 282 283 283 282 282 281 280 279 279 279 278 279 280
243 246 249 250 252 255 258 259 261 263 263 264 265 267 268 268 269 271 273 275 276 276 276 275 275 275 276 277 279 281 283 284 284 284 283 282 281 280 279 278 278 278 279 279
246 247 248 250 253 256 259 260 261 262 263 264 266 268 269 270 271 273 275 277 278 277 276 276 276 277 277 278 280 281 283 284 285 286 285 283 283 282 280 278 277 277 278 280
248 249 250 252 254 256 258 259 261 262 263 265 267 269 270 272 274 275 276 277 277 278 277 276 277 279 279 280 282 282 283 284 284 285 285 285 284 282 281 280 280 280 279 279
248 251 251 254 255 256 257 259 262 264 267 269 270 271 271 273 274 276 277 277 276 277 277 277 279 280 280 281 282 283 283 284 285 286 286 286 286 285 282 281 281 281 280 281
249 250 251 254 256 256 259 262 265 267 268 269 271 271 272 274 276 277 278 276 275 276 277 279 279 281 282 283 283 284 285 285 285 285 285 285 285 285 284 284 283 283 283 283
251 252 254 256 257 259 263 266 268 269 270 273 273 273 274 275 276 277 276 277 277 277 278 279 280 281 282 283 284 285 285 285 285 285 285 285 286 286 284 284 283 283 283 284
254 255 257 258 259 261 264 267 269 272 273 275 277 278 279 279 278 278 278 279 280 279 280 281 281 282 283 284 284 284 284 284 284 284 284 285 285 284 284 284 284 284 284 284
256 257 259 261 262 264 265 268 271 273 275 278 281 282 284 283 283 283 282 281 281 282 283 283 283 284 285 284 284 285 284 284 284 284 285 286 285 284 284 285 284 283 283 283
252 255 260 264 265 264 265 269 273 275 278 282 284 285 285 286 286 286 285 284 284 284 285 286 285 285 285 284 284 285 285 284 285 285 286 286 285 284 284 284 284 284 284 284
257 260 265 269 269 267 268 271 275 278 282 285 286 285 285 286 288 289 289 289 289 288 288 289 289 289 287 286 284 284 285 285 286 286 287 286 286 285 285 286 286 286 287 288
261 267 271 274 274 274 274 275 278 283 285 287 287 286 286 288 290 291 291 292 291 292 293 292 292 293 291 289 288 288 288 289 288 288 288 288 287 287 287 287 288 288 288 289
263 269 274 277 277 276 276 278 282 285 286 289 290 290 291 292 292 292 294 295 295 296 298 300 300 297 295 293 290 290 292 293 293 292 291 291 291 291 290 290 290 290 290 290
270 274 277 280 282 284 283 283 287 289 292 294 295 294 295 297 297 298 299 299 300 301 302 302 302 302 300 298 295 294 295 295 295 296 296 296 295 294 293 292 292 292 291 291
Height
5857 5862 5865 5868 5870 5873 5875 5877 5879 5879 5878 5878 5880 5881 5882 5883 5885 5885 5885 5886 5886 5886 5885 5886 5886 5886 5886 5885 5885 5885 5884 5884 5884 5883 5883 5882 5882 5881 5881 5880 5879 5878 5877 5876
5850 5855 5859 5861 5864 5867 5869 5871 5872 5872 5871 5871 5875 5875 5877 5879 5879 5880 5881 5881 5882 5882 5882 5882 5882 5882 5882 5881 5881 5881 5880 5880 5880 5879 5878 5878 5877 5877 5876 5876 5875 5874 5872 5871
5844 5848 5851 5854 5858 5860 5863 5865 5867 5866 5867 5866 5868 5870 5872 5873 5874 5875 5876 5876 5876 5876 5877 5877 5877 5877 5877 5877 5877 5876 5876 5875 5875 5874 5873 5873 5872 5871 5871 5870 5869 5868 5867 5866
5838 5842 5844 5849 5852 5854 5856 5858 5860 5860 5859 5858 5859 5864 5865 5866 5868 5869 5870 5870 5870 5870 5871 5871 5872 5872 5872 5872 5871 5871 5870 5870 5869 5868 5867 5866 5866 5865 5865 5864 5863 5862 5861 5859
5832 5835 5838 5842 5845 5847 5849 5850 5852 5852 5852 5853 5854 5857 5858 5860 5862 5863 5864 5865 5865 5865 5866 5866 5866 5866 5866 5866 5866 5865 5864 5863 5862 5861 5860 5859 5859 5857 5857 5856 5856 5854 5853 5852
5825 5828 5832 5835 5836 5838 5842 5841 5843 5844 5845 5846 5847 5849 5852 5853 5855 5856 5858 5858 5859 5859 5859 5859 5859 5859 5859 5859 5858 5858 5857 5856 5855 5854 5853 5852 5851 5850 5849 5848 5848 5847 5845 5844
5818 5821 5824 5826 5827 5831 5834 5834 5835 5836 5837 5839 5841 5842 5845 5846 5848 5849 5851 5852 5852 5852 5853 5852 5852 5852 5851 5850 5850 5849 5849 5848 5847 5846 5845 5844 5843 5842 5841 5840 5839 5838 5837 5836
5811 5815 5818 5818 5820 5823 5824 5826 5827 5827 5830 5833 5834 5835 5837 5839 5841 5842 5843 5844 5845 5845 5845 5845 5844 5843 5843 5842 5841 5840 5839 5839 5838 5837 5836 5835 5834 5833 5832 5831 5830 5829 5828 5827
5805 5808 5808 5810 5812 5814 5816 5819 5820 5821 5824 5825 5828 5829 5830 5832 5833 5834 5835 5836 5836 5836 5836 5836 5835 5834 5834 5833 5831 5830 5829 5829 5828 5827 5826 5825 5825 5824 5823 5822 5820 5819 5818 5817
5796 5798 5801 5804 5806 5807 5809 5812 5813 5815 5817 5819 5820 5822 5823 5825 5825 5826 5827 5827 5827 5827 5827 5827 5826 5826 5825 5824 5822 5821 5820 5819 5818 5817 5816 5815 5814 5813 5812 5811 5810 5809 5807 5806
5788 5791 5794 5796 5799 5801 5803 5805 5807 5809 5810 5811 5813 5814 5815 5816 5817 5817 5818 5818 5818 5818 5818 5817 5817 5816 5815 5813 5812 5811 5809 5808 5807 5806 5805 5804 5803 5802 5801 5800 5799 5798 5797 5795
5782 5784 5787 5790 5792 5794 5796 5798 5800 5801 5803 5804 5805 5806 5807 5807 5808 5809 5809 5809 5808 5808 5807 5807 5806 5805 5804 5803 5801 5800 5799 5797 5796 5794 5793 5792 5791 5790 5789 5789 5788 5786 5785 5784
5776 5778 5780 5783 5785 5787 5789 5791 5792 5793 5794 5796 5797 5798 5798 5799 5799 5799 5799 5799 5798 5798 5797 5796 5796 5795 5794 5792 5791 5789 5788 5787 5785 5783 5782 5780 5779 5778 5778 5777 5776 5775 5774 5773
5770 5771 5773 5776 5777 5780 5781 5782 5784 5785 5786 5788 5789 5789 5789 5790 5790 5790 5789 5789 5788 5787 5786 5785 5785 5784 5783 5782 5780 5779 5778 5776 5774 5772 5770 5769 5768 5767 5766 5765 5764 5763 5763 5761
5763 5765 5767 5769 5771 5772 5774 5775 5776 5778 5779 5780 5781 5781 5781 5781 5781 5780 5780 5779 5777 5776 5775 5775 5774 5774 5773 5771 5770 5769 5767 5765 5763 5761 5760 5758 5756 5755 5754 5753 5752 5752 5751 5749
5756 5758 5760 5762 5764 5765 5767 5768 5769 5770 5771 5772 5772 5772 5772 5772 5771 5771 5770 5768 5767 5766 5765 5765 5764 5763 5762 5761 5760 5758 5756 5755 5753 5751 5749 5747 5745 5743 5742 5741 5740 5740 5739 5738
5749 5751 5753 5755 5757 5758 5760 5761 5762 5763 5763 5764 5764 5764 5764 5763 5763 5762 5761 5759 5758 5757 5756 5756 5755 5754 5752 5751 5749 5748 5746 5744 5742 5739 5738 5736 5734 5732 5730 5730 5729 5728 5728 5727
5743 5745 5747 5748 5750 5751 5753 5754 5755 5755 5756 5756 5756 5756 5755 5754 5754 5753 5752 5751 5750 5749 5748 5747 5745 5744 5743 5741 5740 5738 5736 5734 5732 5729 5727 5725 5723 5722 5720 5719 5718 5717 5717 5716
5737 5739 5741 5742 5743 5745 5746 5747 5748 5748 5748 5748 5748 5748 5747 5746 5745 5744 5743 5742 5741 5740 5739 5738 5736 5735 5733 5731 5729 5728 5726 5724 5721 5719 5717 5715 5713 5712 5710 5709 5708 5707 5707 5706
5732 5733 5735 5736 5737 5739 5740 5740 5740 5740 5741 5740 5740 5740 5739 5738 5737 5736 5734 5733 5732 5731 5730 5729 5727 5726 5724 5722 5720 5718 5716 5714 5711 5709 5708 5706 5704 5702 5701 5700 5699 5698 5697 5695
5726 5728 5729 5731 5732 5733 5733 5734 5734 5734 5733 5733 5733 5732 5731 5730 5729 5727 5726 5725 5723 5722 5721 5719 5718 5716 5714 5712 5710 5708 5706 5704 5702 5700 5698 5696 5695 5693 5692 5691 5690 5688 5687 5686
5722 5723 5724 5725 5726 5727 5727 5727 5727 5727 5727 5726 5726 5725 5724 5722 5721 5719 5718 5716 5715 5713 5712 5710 5709 5707 5705 5703 5701 5699 5697 5695 5693 5691 5689 5687 5686 5684 5682 5681 5680 5679 5677 5676
5718 5718 5719 5720 5721 5721 5722 5722 5721 5721 5721 5720 5719 5718 5716 5715 5713 5712 5711 5709 5707 5705 5703 5702 5700 5698 5696 5694 5692 5690 5688 5686 5684 5682 5680 5678 5677 5675 5673 5671 5670 5669 5667 5666
5713 5714 5715 5715 5715 5716 5716 5716 5716 5715 5714 5713 5712 5711 5709 5708 5707 5705 5703 5701 5699 5698 5696 5694 5692 5689 5687 5685 5683 5681 5679 5678 5676 5673 5672 5670 5668 5666 5664 5663 5661 5659 5658 5656
5710 5710 5710 5711 5710 5710 5710 5710 5710 5709 5708 5707 5705 5704 5703 5701 5700 5698 5696 5694 5692 5690 5689 5686 5684 5681 5679 5677 5675 5673 5671 5669 5667 5665 5663 5661 5659 5657 5655 5654 5652 5650 5648 5647
5706 5706 5706 5705 5705 5705 5705 5704 5704 5703 5702 5701 5699 5698 5696 5695 5693 5691 5689 5687 5685 5683 5681 5679 5677 5674 5672 5670 5668 5666 5664 5662 5659 5657 5655 5653 5651 5649 5647 5645 5643 5641 5639 5637
5703 5703 5702 5701 5701 5701 5700 5700 5699 5698 5697 5695 5694 5692 5691 5689 5687 5685 5683 5681 5679 5677 5675 5673 5670 5668 5666 5664 5661 5659 5657 5655 5652 5650 5648 5646 5644 5641 5639 5637 5635 5633 5631 5629